Paynesville, MN

6:01 PM CDT on June 24, 2017 (GMT -0500)
Paynesville

Weather History for KPEX - May, 2013

Change the Weather History Date:

Thursday, May 23, 2013

  Actual Average (KLJF) Record (KLJF)
Temperature  
Mean Temperature 52 °F -  
Max Temperature 62 °F 73 °F 92 °F (1964)
Min Temperature 41 °F 49 °F 32 °F (1963)
Degree Days  
Heating Degree Days 14    
Growing Degree Days 2 (Base 50)    
Moisture  
Dew Point 36 °F    
Average Humidity 59    
Maximum Humidity 91    
Minimum Humidity 30    
Precipitation  
Precipitation 0.00 in - - ()
Sea Level Pressure  
Sea Level Pressure 30.25 in    
Wind  
Wind Speed 6 mph (NE)    
Max Wind Speed 14 mph    
Max Gust Speed 20 mph    
Visibility 10 miles    
Events      
Averages and records for this station are not official NWS values.
T = Trace of Precipitation, MM = Missing Value Source: NWS Daily Summary

Daily Weather History Graph

Daily Weather History Graph

Search for Another Location

Airport or City:

Trip Planner

Search our weather history database for the weather conditions in past years. The results will help you decide how hot, cold, wet, or windy it might be!

Date:

Astronomy

May. 23, 2013 Rise Set
Actual Time 5:40 AM CDT 8:51 PM CDT
Civil Twilight 5:04 AM CDT 9:27 PM CDT
Nautical Twilight 4:18 AM CDT 10:13 PM CDT
Astronomical Twilight 3:22 AM CDT 11:10 PM CDT
Moon 7:21 PM CDT (5/23) 4:31 AM CDT (5/23)
Length of Visible Light 16h 22m
Length of Day
15h 11m
Waxing Gibbous, 97% of the Moon is Illuminated
May 23
Waxing Gibbous
May 24
Full
May 31
Last Quarter
Jun 8
New
Jun 16
First Quarter

Hourly Weather History & Observations

Time (CDT) Temp. Windchill Dew Point Humidity Pressure Visibility Wind Dir Wind Speed Gust Speed Precip Events Conditions
12:13 AM 45.9 °F - 41.5 °F 85% 30.06 in 10.0 mi Calm Calm - N/A   Clear
12:32 AM 45.5 °F 42.5 °F 41.2 °F 85% 30.06 in 10.0 mi North 5.8 mph - N/A   Clear
12:53 AM 45.9 °F 42.9 °F 41.0 °F 83% 30.07 in 10.0 mi North 5.8 mph - N/A   Clear
1:13 AM 45.7 °F 44.4 °F 40.6 °F 83% 30.09 in 10.0 mi North 3.5 mph - N/A   Clear
1:32 AM 44.8 °F - 40.3 °F 84% 30.09 in 10.0 mi Calm Calm - N/A   Clear
1:53 AM 44.6 °F 43.1 °F 39.9 °F 84% 30.10 in 10.0 mi NNE 3.5 mph - N/A   Clear
2:13 AM 44.6 °F 40.7 °F 39.6 °F 82% 30.11 in 10.0 mi NE 6.9 mph - N/A   Clear
2:32 AM 45.1 °F 42.8 °F 39.7 °F 81% 30.12 in 10.0 mi ENE 4.6 mph - N/A   Clear
2:52 AM 44.8 °F 41.6 °F 39.4 °F 81% 30.13 in 10.0 mi NE 5.8 mph - N/A   Clear
2:56 AM 44.8 °F 42.4 °F 39.4 °F 81% 30.13 in 10.0 mi NE 4.6 mph - N/A   Clear
3:36 AM 45.1 °F 42.0 °F 39.4 °F 80% 30.15 in 10.0 mi NNE 5.8 mph - N/A   Clear
3:42 AM 45.1 °F 40.3 °F 39.2 °F 80% 30.15 in 10.0 mi NE 9.2 mph - N/A   Clear
4:34 AM 43.2 °F 40.5 °F 38.5 °F 84% 30.17 in 10.0 mi NE 4.6 mph - N/A   Clear
4:53 AM 43.2 °F 39.7 °F 38.3 °F 83% 30.18 in 10.0 mi NE 5.8 mph - N/A   Clear
5:13 AM 43.2 °F 39.7 °F 37.6 °F 81% 30.19 in 10.0 mi ENE 5.8 mph - N/A   Clear
5:33 AM 42.8 °F 39.3 °F 37.4 °F 81% 30.20 in 10.0 mi NNE 5.8 mph - N/A   Clear
5:53 AM 41.9 °F 38.2 °F 36.9 °F 82% 30.21 in 10.0 mi NE 5.8 mph - N/A   Scattered Clouds
6:13 AM 43.0 °F 38.8 °F 36.5 °F 78% 30.21 in 10.0 mi NE 6.9 mph - N/A   Scattered Clouds
6:33 AM 43.2 °F 39.0 °F 36.5 °F 77% 30.22 in 10.0 mi NE 6.9 mph - N/A   Clear
6:53 AM 43.9 °F 39.9 °F 36.3 °F 75% 30.23 in 10.0 mi NE 6.9 mph - N/A   Clear
7:13 AM 44.6 °F 40.2 °F 36.0 °F 72% 30.24 in 10.0 mi NE 8.1 mph - N/A   Clear
7:33 AM 45.0 °F 41.2 °F 36.0 °F 71% 30.25 in 10.0 mi NE 6.9 mph - N/A   Clear
7:53 AM 45.7 °F 41.5 °F 36.5 °F 70% 30.25 in 10.0 mi NE 8.1 mph - N/A   Clear
8:13 AM 46.0 °F 41.4 °F 36.5 °F 69% 30.26 in 10.0 mi NE 9.2 mph - N/A   Clear
8:33 AM 46.9 °F - 36.9 °F 68% 30.26 in 10.0 mi NE 10.4 mph - N/A   Clear
8:53 AM 47.5 °F - 35.8 °F 64% 30.28 in 10.0 mi ENE 13.8 mph - N/A   Clear
9:13 AM 48.0 °F - 35.6 °F 62% 30.28 in 10.0 mi NE 10.4 mph - N/A   Clear
9:33 AM 48.9 °F - 35.1 °F 59% 30.29 in 10.0 mi NE 9.2 mph - N/A   Clear
9:53 AM 49.5 °F - 34.5 °F 56% 30.29 in 10.0 mi NE 11.5 mph - N/A   Clear
10:13 AM 50.2 °F - 36.5 °F 59% 30.29 in 10.0 mi NE 9.2 mph - N/A   Clear
10:33 AM 51.1 °F - 36.7 °F 58% 30.30 in 10.0 mi NNE 9.2 mph - N/A   Clear
10:53 AM 51.8 °F - 36.9 °F 57% 30.29 in 10.0 mi NNE 11.5 mph 17.3 mph N/A   Clear
11:13 AM 52.5 °F - 36.1 °F 54% 30.29 in 10.0 mi NE 13.8 mph 19.6 mph N/A   Clear
11:33 AM 53.6 °F - 37.2 °F 54% 30.30 in 10.0 mi NNE 10.4 mph 16.1 mph N/A   Clear
11:53 AM 53.4 °F - 37.4 °F 55% 30.30 in 10.0 mi North 12.7 mph - N/A   Clear
12:12 PM 53.8 °F - 37.6 °F 54% 30.30 in 10.0 mi North 10.4 mph 16.1 mph N/A   Clear
12:33 PM 54.9 °F - 37.2 °F 51% 30.30 in 10.0 mi NNE 11.5 mph 17.3 mph N/A   Clear
12:53 PM 55.4 °F - 35.1 °F 46% 30.29 in 10.0 mi North 9.2 mph 17.3 mph N/A   Clear
1:13 PM 55.8 °F - 33.8 °F 44% 30.29 in 10.0 mi North 10.4 mph 18.4 mph N/A   Clear
1:33 PM 56.5 °F - 36.0 °F 46% 30.30 in 10.0 mi North 8.1 mph 19.6 mph N/A   Clear
1:53 PM 57.9 °F - 35.8 °F 44% 30.30 in 10.0 mi NNE 10.4 mph 16.1 mph N/A   Clear
2:12 PM 58.6 °F - 33.1 °F 38% 30.30 in 10.0 mi NE 9.2 mph 17.3 mph N/A   Clear
2:33 PM 58.8 °F - 32.4 °F 37% 30.29 in 10.0 mi NE 11.5 mph - N/A   Clear
2:53 PM 59.2 °F - 32.7 °F 37% 30.29 in 10.0 mi ENE 5.8 mph 17.3 mph N/A   Clear
3:13 PM 59.5 °F - 30.9 °F 34% 30.29 in 10.0 mi ENE 8.1 mph - N/A   Clear
3:33 PM 60.3 °F - 32.7 °F 35% 30.29 in 10.0 mi North 4.6 mph - N/A   Clear
3:53 PM 61.0 °F - 32.2 °F 34% 30.29 in 10.0 mi NNE 9.2 mph - N/A   Clear
4:13 PM 61.7 °F - 30.7 °F 31% 30.29 in 10.0 mi NNE 6.9 mph - N/A   Clear
4:33 PM 61.3 °F - 29.8 °F 30% 30.28 in 10.0 mi ENE 9.2 mph - N/A   Clear
4:53 PM 61.3 °F - 29.8 °F 30% 30.28 in 10.0 mi NE 3.5 mph - N/A   Clear
5:12 PM 61.9 °F - 30.7 °F 31% 30.28 in 10.0 mi NE 5.8 mph - N/A   Clear
5:33 PM 61.7 °F - 29.8 °F 30% 30.28 in 10.0 mi NE 6.9 mph - N/A   Clear
5:53 PM 61.9 °F - 30.9 °F 31% 30.28 in 10.0 mi ENE 8.1 mph - N/A   Clear
6:12 PM 62.1 °F - 31.3 °F 31% 30.29 in 10.0 mi East 6.9 mph - N/A   Clear
6:33 PM 61.7 °F - 29.8 °F 30% 30.28 in 10.0 mi ENE 6.9 mph - N/A   Clear
6:53 PM 61.7 °F - 30.4 °F 31% 30.28 in 10.0 mi NE 6.9 mph - N/A   Clear
7:13 PM 61.0 °F - 31.3 °F 33% 30.28 in 10.0 mi East 8.1 mph - N/A   Clear
7:33 PM 60.8 °F - 31.5 °F 33% 30.28 in 10.0 mi East 4.6 mph - N/A   Clear
7:53 PM 60.6 °F - 32.2 °F 34% 30.28 in 10.0 mi East 3.5 mph - N/A   Clear
8:13 PM 59.9 °F - 32.4 °F 35% 30.28 in 10.0 mi ENE 3.5 mph - N/A   Clear
8:33 PM 59.0 °F - 33.3 °F 38% 30.28 in 10.0 mi East 3.5 mph - N/A   Clear
8:53 PM 57.4 °F - 36.1 °F 45% 30.28 in 10.0 mi Calm Calm - N/A   Clear
9:13 PM 54.3 °F - 39.2 °F 57% 30.29 in 10.0 mi Calm Calm - N/A   Clear
9:33 PM 50.9 °F - 41.7 °F 71% 30.29 in 10.0 mi Calm Calm - N/A   Clear
9:53 PM 49.5 °F - 41.2 °F 73% 30.31 in 10.0 mi Calm Calm - N/A   Clear
10:13 PM 48.7 °F - 40.1 °F 72% 30.32 in 10.0 mi Calm Calm - N/A   Clear
10:32 PM 46.8 °F - 41.9 °F 83% 30.32 in 10.0 mi Calm Calm - N/A   Clear
10:53 PM 45.1 °F - 41.7 °F 88% 30.32 in 10.0 mi Calm Calm - N/A   Clear
11:13 PM 44.6 °F - 42.1 °F 91% 30.33 in 10.0 mi Calm Calm - N/A   Clear
11:33 PM 46.2 °F 45.0 °F 38.3 °F 74% 30.33 in 10.0 mi SE 3.5 mph - N/A   Clear
11:53 PM 49.1 °F - 36.7 °F 62% 30.33 in 10.0 mi SE 3.5 mph - N/A   Clear